STARLINK-35555 (66425 NORAD) Tracking and Keplerian Element Data

This shows tracking and keplerian element data for the satellite.

Feedback or suggestion? Click here.




ElementValue
Catalog66425
NameSTARLINK-35555
Epoch Orbit724
Epoch Day353.74467373
Epoch Year2025
RAAN7.6651
Inclination42.9976
Eccentricity7.27E-05
Argument of Perigee305.8798
Mean Anonmoly54.1991
Mean Motion15.40700871
Decay Rate0.00028168
L11 66425U 25259D 25353.74467373 .00028168 00000+0 67906-3 0 9990
L22 66425 42.9976 7.6651 0000727 305.8798 54.1991 15.40700871 7248



Live tracking and technical data element details for STARLINK-35555 (NORAD 66425). STARLINK-35555 can be tracked NOW for your location showing map with azimuth and elevation plus other details from your city location.







IsCatalogInMostPopularTable: catalog: 66425, numindb: 2
Update: records affected: 1



GetName: 66425 STARLINK-35555

Hit Count: updated at: Sun, 08 Feb 2026 17:29:46 GMT